Glenwood, MN

5:19 PM CDT on August 17, 2017 (GMT -0500)
Glenwood Municipal

Weather History for KGHW - February, 2012

Change the Weather History Date:

Friday, February 17, 2012

  Actual Average Record
Temperature  
Mean Temperature 26 °F -  
Max Temperature 33 °F 27 °F 58 °F (1981)
Min Temperature 19 °F 9 °F -21 °F (1958)
Degree Days  
Heating Degree Days 39    
Moisture  
Dew Point 18 °F    
Average Humidity 71    
Maximum Humidity 93    
Minimum Humidity 41    
Precipitation  
Precipitation 0.00 in - - ()
Sea Level Pressure  
Sea Level Pressure 30.03 in    
Wind  
Wind Speed 9 mph (WNW)    
Max Wind Speed 18 mph    
Max Gust Speed 23 mph    
Visibility 9 miles    
Events Snow    
Averages and records for this station are not official NWS values.
T = Trace of Precipitation, MM = Missing Value Source: NWS Daily Summary

Daily Weather History Graph

Daily Weather History Graph

Search for Another Location

Airport or City:

Trip Planner

Search our weather history database for the weather conditions in past years. The results will help you decide how hot, cold, wet, or windy it might be!

Date:

Astronomy

Feb. 17, 2012 Rise Set
Actual Time 7:20 AM CST 5:50 PM CST
Civil Twilight 6:50 AM CST 6:20 PM CST
Nautical Twilight 6:15 AM CST 6:55 PM CST
Astronomical Twilight 5:41 AM CST 7:29 PM CST
Moon 4:22 AM CST 1:35 PM CST
Length of Visible Light 11h 30m
Length of Day
10h 29m
Waning Crescent, 19% of the Moon is Illuminated
Feb 17
Waning Crescent
Feb 21
New
Feb 29
First Quarter
Mar 8
Full
Mar 14
Last Quarter

Hourly Weather History & Observations

Time (CST) Temp. Windchill Dew Point Humidity Pressure Visibility Wind Dir Wind Speed Gust Speed Precip Events Conditions
12:13 AM 28.4 °F 22.2 °F 15.8 °F 59% 29.97 in 10.0 mi West 5.8 mph - N/A   Mostly Cloudy
12:34 AM 30.2 °F - 15.8 °F 55% 29.96 in 10.0 mi Calm Calm - N/A   Scattered Clouds
12:53 AM 28.4 °F 24.6 °F 17.6 °F 64% 29.95 in 10.0 mi SSE 3.5 mph - N/A   Scattered Clouds
1:14 AM 28.4 °F 19.1 °F 19.4 °F 69% 29.93 in 7.0 mi South 10.4 mph - N/A Snow Light Snow
1:54 AM 28.4 °F 20.4 °F 23.0 °F 80% 29.93 in 10.0 mi SSW 8.1 mph - N/A   Mostly Cloudy
2:14 AM 28.4 °F 22.2 °F 23.0 °F 80% 29.93 in 3.0 mi SW 5.8 mph - N/A Snow Light Snow
2:33 AM 28.4 °F 22.2 °F 24.8 °F 86% 29.93 in 4.0 mi SSW 5.8 mph - N/A   Overcast
2:54 AM 28.4 °F 23.3 °F 24.8 °F 86% 29.92 in 3.0 mi SSW 4.6 mph - N/A Snow Light Snow
3:13 AM 26.6 °F 20.0 °F 23.0 °F 86% 29.91 in 10.0 mi WSW 5.8 mph - N/A   Mostly Cloudy
3:34 AM 24.8 °F 16.9 °F 23.0 °F 93% 29.90 in 10.0 mi WSW 6.9 mph - N/A   Scattered Clouds
3:53 AM 24.8 °F 16.1 °F 21.2 °F 86% 29.90 in 7.0 mi WSW 8.1 mph - N/A   Clear
4:14 AM 24.8 °F 14.6 °F 21.2 °F 86% 29.91 in 10.0 mi West 10.4 mph - N/A   Clear
4:34 AM 26.6 °F 16.8 °F 24.8 °F 93% 29.91 in 7.0 mi West 10.4 mph - N/A   Clear
4:54 AM 24.8 °F 15.3 °F 21.2 °F 86% 29.92 in 7.0 mi West 9.2 mph - N/A   Clear
5:14 AM 24.8 °F 15.3 °F 21.2 °F 86% 29.92 in 7.0 mi West 9.2 mph - N/A   Clear
5:34 AM 24.8 °F 16.1 °F 21.2 °F 86% 29.92 in 10.0 mi West 8.1 mph - N/A   Clear
5:54 AM 21.2 °F 11.7 °F 19.4 °F 93% 29.92 in 10.0 mi West 8.1 mph - N/A   Clear
6:13 AM 21.2 °F 11.7 °F 17.6 °F 86% 29.93 in 10.0 mi West 8.1 mph - N/A   Clear
6:34 AM 21.2 °F 11.7 °F 17.6 °F 86% 29.94 in 10.0 mi West 8.1 mph - N/A   Clear
6:53 AM 19.4 °F 8.6 °F 17.6 °F 93% 29.95 in 10.0 mi West 9.2 mph - N/A   Clear
7:14 AM 19.4 °F 8.6 °F 15.8 °F 86% 29.96 in 10.0 mi West 9.2 mph - N/A   Clear
7:34 AM 19.4 °F 8.6 °F 15.8 °F 86% 29.97 in 10.0 mi WNW 9.2 mph - N/A   Clear
7:54 AM 19.4 °F 8.6 °F 15.8 °F 86% 29.98 in 10.0 mi WNW 9.2 mph - N/A   Clear
8:14 AM 19.4 °F 8.6 °F 17.6 °F 93% 29.99 in 10.0 mi WNW 9.2 mph - N/A   Clear
8:34 AM 21.2 °F 10.9 °F 17.6 °F 86% 30.00 in 10.0 mi West 9.2 mph - N/A   Clear
8:54 AM 23.0 °F 11.1 °F 19.4 °F 86% 30.00 in 10.0 mi NW 12.7 mph 17.3 mph N/A   Clear
9:14 AM 23.0 °F 10.1 °F 19.4 °F 86% 30.01 in 10.0 mi NW 15.0 mph - N/A   Clear
9:34 AM 24.8 °F 11.9 °F 19.4 °F 80% 30.02 in 10.0 mi NNW 16.1 mph 21.9 mph N/A   Clear
9:54 AM 24.8 °F 12.4 °F 19.4 °F 80% 30.03 in 10.0 mi NNW 15.0 mph - N/A   Scattered Clouds
10:14 AM 24.8 °F 12.9 °F 19.4 °F 80% 30.04 in 10.0 mi NNW 13.8 mph - N/A   Overcast
10:34 AM 24.8 °F 12.9 °F 21.2 °F 86% 30.05 in 7.0 mi NNW 13.8 mph - N/A   Overcast
10:54 AM 26.6 °F 14.7 °F 21.2 °F 80% 30.05 in 10.0 mi NNW 15.0 mph - N/A   Overcast
11:14 AM 26.6 °F 14.7 °F 23.0 °F 86% 30.06 in 10.0 mi NNW 15.0 mph - N/A   Overcast
11:34 AM 30.2 °F 19.8 °F 23.0 °F 75% 30.06 in 10.0 mi NNW 13.8 mph - N/A   Overcast
11:54 AM 32.0 °F 22.5 °F 23.0 °F 69% 30.06 in 10.0 mi NNW 12.7 mph 19.6 mph N/A   Mostly Cloudy
12:14 PM 30.2 °F 20.8 °F 21.2 °F 69% 30.07 in 10.0 mi NNW 11.5 mph 20.7 mph N/A   Mostly Cloudy
12:34 PM 32.0 °F 20.8 °F 19.4 °F 60% 30.07 in 10.0 mi NW 17.3 mph - N/A   Mostly Cloudy
12:54 PM 32.0 °F 22.5 °F 17.6 °F 55% 30.07 in 10.0 mi NNW 12.7 mph 23.0 mph N/A   Overcast
1:14 PM 30.2 °F 18.5 °F 15.8 °F 55% 30.07 in 10.0 mi NW 17.3 mph - N/A   Overcast
1:34 PM 32.0 °F 21.6 °F 17.6 °F 55% 30.08 in 10.0 mi NW 15.0 mph 19.6 mph N/A   Overcast
1:54 PM 30.2 °F 19.3 °F 15.8 °F 55% 30.08 in 10.0 mi NW 15.0 mph - N/A   Overcast
2:14 PM 30.2 °F 20.2 °F 15.8 °F 55% 30.08 in 10.0 mi NW 12.7 mph - N/A   Mostly Cloudy
2:34 PM 30.2 °F 18.5 °F 14.0 °F 51% 30.08 in 10.0 mi WNW 17.3 mph - N/A   Mostly Cloudy
3:13 PM 33.8 °F 23.2 °F 12.2 °F 41% 30.09 in 10.0 mi NNW 17.3 mph - N/A   Overcast
3:34 PM 30.2 °F 20.2 °F 12.2 °F 47% 30.10 in 10.0 mi NNW 12.7 mph - N/A   Mostly Cloudy
3:53 PM 30.2 °F 20.8 °F 12.2 °F 47% 30.10 in 10.0 mi NNW 11.5 mph - N/A   Mostly Cloudy
4:14 PM 30.2 °F 20.2 °F 12.2 °F 47% 30.10 in 10.0 mi NNW 12.7 mph - N/A   Overcast
4:33 PM 30.2 °F 18.1 °F 12.2 °F 47% 30.11 in 10.0 mi NW 18.4 mph 23.0 mph N/A   Mostly Cloudy
4:54 PM 28.4 °F 16.2 °F 12.2 °F 51% 30.11 in 10.0 mi NW 17.3 mph - N/A   Overcast
5:14 PM 28.4 °F 17.5 °F 12.2 °F 51% 30.12 in 10.0 mi NW 13.8 mph - N/A   Overcast
5:33 PM 28.4 °F 17.5 °F 14.0 °F 55% 30.12 in 10.0 mi NW 13.8 mph 18.4 mph N/A   Overcast
5:54 PM 28.4 °F 18.0 °F 15.8 °F 59% 30.12 in 10.0 mi NW 12.7 mph 21.9 mph N/A   Overcast
6:14 PM 28.4 °F 17.0 °F 15.8 °F 59% 30.12 in 10.0 mi NNW 15.0 mph - N/A   Overcast
6:34 PM 28.4 °F 20.4 °F 15.8 °F 59% 30.13 in 10.0 mi NW 8.1 mph - N/A   Overcast
6:53 PM 28.4 °F 19.7 °F 15.8 °F 59% 30.14 in 10.0 mi NW 9.2 mph - N/A   Overcast
7:13 PM 26.6 °F 17.5 °F 15.8 °F 64% 30.14 in 10.0 mi NNW 9.2 mph - N/A   Overcast
7:33 PM 26.6 °F 14.7 °F 15.8 °F 64% 30.14 in 10.0 mi NW 15.0 mph 20.7 mph N/A   Overcast
7:54 PM 26.6 °F 15.2 °F 15.8 °F 64% 30.15 in 10.0 mi NW 13.8 mph - N/A   Mostly Cloudy
8:14 PM 26.6 °F 16.8 °F 15.8 °F 64% 30.14 in 10.0 mi NNW 10.4 mph - N/A   Mostly Cloudy
8:33 PM 24.8 °F 16.9 °F 14.0 °F 64% 30.15 in 10.0 mi NNW 6.9 mph - N/A   Scattered Clouds
8:54 PM 23.0 °F 15.8 °F 14.0 °F 68% 30.15 in 10.0 mi NNW 5.8 mph - N/A   Clear
9:14 PM 21.2 °F 14.9 °F 14.0 °F 74% 30.15 in 10.0 mi NW 4.6 mph - N/A   Clear
9:34 PM 19.4 °F 12.8 °F 12.2 °F 74% 30.16 in 10.0 mi NW 4.6 mph - N/A   Clear
9:54 PM 17.6 °F 8.2 °F 12.2 °F 79% 30.16 in 10.0 mi NW 6.9 mph - N/A   Clear
10:14 PM 21.2 °F 12.6 °F 15.8 °F 80% 30.17 in 10.0 mi WNW 6.9 mph - N/A   Mostly Cloudy
10:33 PM 21.2 °F 12.6 °F 15.8 °F 80% 30.17 in 10.0 mi WNW 6.9 mph - N/A   Overcast
10:54 PM 21.2 °F 14.9 °F 15.8 °F 80% 30.17 in 10.0 mi NW 4.6 mph - N/A   Overcast
11:13 PM 19.4 °F 11.5 °F 14.0 °F 80% 30.17 in 10.0 mi NW 5.8 mph - N/A   Mostly Cloudy
11:33 PM 19.4 °F 11.5 °F 12.2 °F 74% 30.17 in 10.0 mi NNW 5.8 mph - N/A   Clear
11:54 PM 19.4 °F 10.4 °F 12.2 °F 74% 30.18 in 10.0 mi NNW 6.9 mph - N/A   Clear